User: anonymous   Login
Location: Unspecified
(0.0000°N, 0.0000°E)
Time: 14:14:27
(UTC+00:00)
Language:

IGS 6A - Orbit

View from above orbital plane
View from above orbital plane
View from above satellite
View from above satellite

Ground track
Ground track

The orbit data is extracted from the following two-line orbital elements,

1 37813U 11050A   19105.97722070 0.00000000  00000-0  00000-0 0    02
2 37813  97.7426 222.4206 0002000 233.1165 126.8834 14.93542262    00
Epoch (UTC): 15 April 2019 23:27:11
Eccentricity: 0.0002000
inclination: 97.7426°
perigee height: 585 km
apogee height: 588 km
right ascension of ascending node: 222.4206°
argument of perigee: 233.1165°
revolutions per day: 14.93542262
mean anomaly at epoch: 126.8834°
orbit number at epoch: 0

The dashed part of the orbit path shows where the satellite is in the earth's shadow,  

DLR